Regional Weather Roundup
Issued by NWS

Home | Current Version | Previous Version | Graphics & Text | Print | Product List | Glossary On
Versions: 1 2 3 4 5 6 7 8 9 10 11 12 13 14 15 16 17 18 19 20 21 22 23 24 25 26 27 28 29 30 31 32 33 34 35 36 37 38 39 40 41 42 43 44 45 46 47 48 49 50
000
ASUS45 KCYS 190710
RWRWY

WYOMING REGIONAL WEATHER ROUNDUP
NATIONAL WEATHER SERVICE CHEYENNE WY
1200 AM MST FRI DEC 19 2014

NOTE:  "FAIR" INDICATES FEW OR NO CLOUDS BELOW 12,000 FEET
WITH NO SIGNIFICANT WEATHER AND/OR OBSTRUCTIONS TO VISIBILITY.

WYZ001-190800-
YELLOWSTONE NATIONAL PARK

CITY           SKY/WX    TMP DP  RH WIND       PRES   REMARKS
LK YELLOWSTONE   N/A     23  18  81 W5        30.06F WCI  17
W YELLOWSTONE  NOT AVBL

$$
WYZ002>013-054>058-071-098>099-190800-
NORTHERN WYOMING

CITY           SKY/WX    TMP DP  RH WIND       PRES   REMARKS
JACKSON        CLOUDY    27  25  93 CALM      30.10F
CODY           FAIR      36  18  48 SW7       30.00S WCI  30
GREYBULL       FAIR      13  10  88 SE3       30.07F
WORLAND        FAIR       0  -4  83 S3        30.06F
SHERIDAN       FAIR      24  12  60 S6        29.98S WCI  17
BUFFALO        FAIR      28  11  48 W8        29.98F WCI  20
GILLETTE       FAIR      29  15  56 SW7       29.99S WCI  22
HULETT           N/A    N/A N/A N/A MISG        N/A
NEWCASTLE      FAIR      21  18  86 SE6       30.04F WCI  14

$$
WYZ014>020-022>026-101>103-190800-
CENTRAL WYOMING

CITY           SKY/WX    TMP DP  RH WIND       PRES   REMARKS
BIG PINEY      FAIR      11   7  84 N9        30.13S WCI  -2
PINEDALE       CLOUDY    18  16  93 W3        30.13S
DUBOIS         PTSUNNY   25  14  63 NW15      30.05S WCI  12
LANDER         FAIR       1  -1  91 SE3       30.07S FOG
RIVERTON       FOG        8   4  83 NW6       30.08S VSB 1/4 WCI  -2
CASPER         FAIR      23  15  71 SW13      30.04F WCI  11
DOUGLAS        FAIR      12   9  87 CALM      30.04F

$$
WYZ021-027>030-104>119-190800-
SOUTHERN WYOMING

CITY           SKY/WX    TMP DP  RH WIND       PRES   REMARKS
EVANSTON       FAIR      20  18  92 SW10      30.15S WCI   9
KEMMERER       FAIR      23  21  93 SW6G17    30.14R WCI  16
FORT BRIDGER   FAIR      23  19  86 SW12      30.17S WCI  12
ROCK SPRINGS   FAIR      21  17  84 SW13      30.13S WCI   9
DIXON          LGT SNOW N/A N/A N/A SE3       30.18F
RAWLINS        FAIR      22  18  85 W15       30.10F WCI   9
SARATOGA       FAIR      14  10  85 S8        30.12F WCI   3
LARAMIE        FAIR      15   8  73 CALM      30.06F
CHEYENNE       FAIR      23  12  62 W8        30.06F WCI  14
TORRINGTON     FAIR     N/A N/A N/A E3        30.06F
PINE BLUFFS    FAIR      25  19  80 W7        30.08F WCI  17

$$


USA.gov is the U.S. government's official web portal to all federal, state and local government web resources and services.